Погода в Кургане

Хотите узнать прогноз погоды в Кургане? Тогда Вам сюда: Погода в Кургане

Поиск расширенной информации на нашем сайте:

Полезная информация:

Новости сайта



02.01.2020
Опубликован Долгосрочный прогноз погоды по городам России и ближнего зарубежья на январь 2020 года.
Карты: Прогноз на январь и февраль 2020 года, Сравнение прогнозируемой аномалии приземной температуры воздуха на январь 2020 года по разным моделям.




Погода в Кургане - сегодня

Время (UTC), дата Ветер
(°,м/с) 
Видим.   Явления Облачность Т
(°С)
Тd
(°С)
f(%) Тe
(°С)
Pmin
(гПа)
dP
(гПа)
Po
(мм)
O2
(г/м3)
Тmin Tmax R s Состояние
почвы
21 22.10.20 250 (З) 10 км    10/0 средняя 
[Ac und]
-1.3 -4.5 79 -2  1011  0.5  751  305           
00 23.10.20 270 (З) 10 км    10/0 средняя, верхняя 
[Ac trans|Ci fib]
-2.7 -6.5 75 -4  1012.1  1.1  752  307           
03 23.10.20 300 (СЗ) 10 км  слаб. ливневой снег  10/8 1000 м кучево-дожд., средняя 
[Cb cap|Ac und]
-3.1 -5.4 84 -5  1014  1.8  753  308  -3.4    0.2  равномерный
сухой снег
100% 
06 23.10.20 310 (СЗ) 20000 м  в посл. час ливневой снег  8/8 1000 м кучево-дожд. 
[Cb cap]
-1.9 -7.3 67 -5  1015.9  1.8  755  307           
09 23.10.20 290 (З) 5-10{10}  20000 м  {ливн. осадки}  8/6 600 м кучево-дожд., верхняя 
[Cb cap|Ci]
-1.5 -7.3 65 -5  1017.6  1.7  756  307           
12 23.10.20 300 (СЗ) 4{10}  20000 м  {ливн. осадки}  8/8 600 м кучево-дожд. 
[Cb cap]
-2.6 -9.5 59 -5  1019.9  2.2  758  309           
15 23.10.20 290 (З) 10 км  {ливн. осадки}  6/6 600 м 
[Sc diur, vesp]
-3.5 -8.6 68 -5  1021.9  1.9  759  311    -1.1  0.2     
18 23.10.20 280 (З) 10 км  {ливн. осадки}  ясно 
-5.6 -9.5 74 -5  1023  1.1  760  314           
21 23.10.20 170 (Ю) 10 км    ясно 
-8 -10.2 84 -8  1023.4  1.1  760  317           
00 24.10.20 190 (Ю) 10 км    ясно 
-8.9 -10.7 87 -9  1023.3  0.1  760  318           
03 24.10.20 тихо ()   20000 м    4/0 верхняя 
[Ci]
-8.9 -10.6 87 -9  1022.4  -0.9  760  317  -9.9      сухой снег
50-90% 
06 24.10.20 150 (ЮВ) 20000 м    10/0 верхняя 
[Ci]
-0.9 -8.3 57 -2  1020  -2  758  307           
09 24.10.20 160 (Ю) 3{10}  10 км  слаб. снег  10/8 600 м средняя 
[Sc|Ac und]
+1.2 -5.3 62 1016.7  -3.2  756  304           
12 24.10.20 170 (Ю) 10 км  слаб. снег  10/8 300 м средняя 
[Sc|Ac und]
+0.5 -1.9 84 -1  1014.3  -2.4  754  303           
15 24.10.20 170 (Ю) 4000 м  слаб. снег  10/10 300 м 
[Ns]
+0.4 -1.2 89 -1  1011.2  -3.1  752  302    +1.5     
18 24.10.20 170 (Ю) 10 км  в посл. час снег  10/10 300 м 
[Ns]
+0.7 -0.8 90 1008.5  -2.7  749  301           
21 24.10.20 170 (Ю) 10 км  в посл. час снег  10/10 300 м 
[Ns]
+0.7 -0.6 91 1006.3  -2.1  748  301           
00 25.10.20 190 (Ю) 10 км  {снег}  10/8 300 м средняя 
[Sc|Ac und]
+1.1 +0 92 1005.7  -0.6  747  300           
03 25.10.20 210 (ЮЗ) 10 км  в посл. час снег  10/8 300 м средняя 
[Sc|Ac und]
+1.8 +0.9 94 +1  1006.5  0.8  748  299  +0.4    мокрый или
старый снег
50-90% 
06 25.10.20 210 (ЮЗ) 20000 м  {снег}  10/8 600 м средняя 
[Sc|Ac und]
+5.2 +4 92 +5  1007.6  1.2  749  295           
09 25.10.20 230 (ЮЗ) 20000 м    10/8 600 м кучево-дожд., средняя 
[Cb cap|Ac und]
+9 +4.9 75 +9  1007.9  0.4  749  291           
12 25.10.20 190 (Ю) 20000 м    10/3 1000 м средняя, верхняя 
[Sc|Ac trans|Ci fib]
+8.1 +4.6 79 +9  1008.5  0.6  750  293           
15 25.10.20 200 (Ю) 10 км    8/3 1000 м средняя 
[Sc|Ac trans]
+6.7 +4.7 87 +7  1008.9  0.3  750  294    +10.3       
18 25.10.20 200 (Ю) 10 км    10/4 1000 м средняя 
[Sc|Ac und]
+6.1 +4.4 89 +7  1008.2  -0.7  749  295           
21 25.10.20 тихо ()   10 км    10/3 1000 м средняя, верхняя 
[Sc|Ac trans|Ci fib]
+4.3 +3 91 +4  1006.8  -1.4  748  296           
Время (UTC), дата Ветер
(°,м/с) 
Видим.   Явления Облачность Т
(°С)
Тd
(°С)
f(%) Тe
(°С)
Pmin
(гПа)
dP
(гПа)
Po
(мм)
O2
(г/м3)
Тmin Tmax R s Состояние
почвы

Для получения пояснительной информации подведите курсор к названию столбца.

ПОГОДА в Кургане - архив

Всё, что Вы хотите узнать о погоде в Кургане - удобно и подробно!

Выберите нужную дату (начиная с 1 января 2019* года) и нажмите кнопку "Найти".
Будут отображены архивные сводки погоды по пункту Курган, начиная с указанной даты.


Отображать данные в формате CSV (для использования в таблицах Excel)


Внимание! Наш архив погоды предназначен исключительно для личного некоммерческого использования в познавательных целях. Если Вам необходимы официальные справки о состоянии погоды (для производственных, юридических, коммерческих и т.п. целей), обращайтесь в органы Росгидромета.

*Примечание: данная дата относится к архиву по метеостанциям СССР (Россия, СНГ, Балтия).
Архив по метеостанциям Зарубежной Европы и Азии (кроме Китая) хранится 10 дней, по другим регионам земного шара (Китай, Африка, Америка, Австралия, Океания) - 1 день.

Курган - район местоположения метеостанции


Название, широта, долгота, высота метеостанции:
Курган 55.5°ш. 65.4°д. 74 м над ур. моря [Российская Федерация]

Дополнительная информация

В oтличие oт бoльшинства пoгoдных сайтoв мы публикуем пoдрoбную метеoинфoрмацию в детальнoм прoфессиoнальнoм фoрмате.

Характеристики температуры и влажнoсти вoздуха измеряются на высoте 2 м в тени вдали oт зданий и деревьев.
Скoрoсть ветра измеряется на высoте 10 м (на урoвне рoста челoвека скoрoсть ветра ниже в 1.5-2 раза). Если метеoстанция нахoдится в гoрoде или в лесу, тo скoрoсть ветра занижена на 2-4 м/с пo сравнению с oткрытым местoм. Скoрoсть ветра над акватoриями крупных рек и oзёр, а также на вершинах хoлмoв на 2-5 м/с выше, чем в oбычных услoвиях.
Атмoсфернoе давление в разных тoчках местнoсти мoжет значительнo oтличаться oт давления на метеoстанции, в зависимoсти oт услoвий рельефа (при пoдъёме на 10 м давление пoнижается примернo на 1 мм рт.ст.).